Orbital Elements at Epoch 2459200.5 (2020-Dec-17.0) TDB
Reference: JPL 20 (heliocentric ecliptic J2000)
Element | Value | Uncertainty (1-sigma) | Units |
e | .1015597360045138 | 4.2731e-08 | |
a | 2.967064919884828 | 1.8776e-08 | au |
q | 2.665730589913071 | 1.3476e-07 | au |
i | 4.117386953527523 | 4.8549e-06 | deg |
node | 315.7675046906725 | 5.1879e-05 | deg |
peri | 84.34568653756544 | 5.8951e-05 | deg |
M | 313.0627015124404 | 3.0645e-05 | deg |
tp | 2459443.891041565351 (2021-Aug-17.39104157) | 0.00016015 | TDB |
period | 1866.762208028429 5.11 | 1.772e-05 4.851e-08 | d yr |
n | .1928472723798132 | 1.8306e-09 | deg/d |
Q | 3.268399249856584 | 2.0683e-08 | au |
|
| | Orbit Determination Parameters
Additional Information
|